Wind_Speed
26 26 25 24 24 24 23 22 22 22 20 19 20 19 19 19 19 18 17 17 17 17 16 16 16 16 15 14 13 12 11 10 10 10 11 10 9 9 8 7 7 8 7 6 6 7 6 6 5 5 6 9 9 9 9 8 9 10 10 12 13 13 12 11 10 11 14 14 14 14 15 16 17 17 19 20 19 18 19 18 18 17 17 18 18
27 26 25 24 24 23 23 22 21 21 19 18 20 20 19 19 19 18 18 17 17 18 18 17 17 16 16 15 15 14 12 11 11 11 11 11 10 10 10 8 7 8 8 8 7 7 8 8 8 7 7 9 9 9 9 9 9 10 10 11 11 12 12 12 11 11 13 15 15 14 15 16 17 17 18 20 20 21 22 22 20 19 19 20 20
27 26 25 25 24 23 23 22 21 20 20 19 20 20 20 19 18 19 18 17 16 17 18 18 17 16 15 15 15 15 14 12 12 13 12 11 10 9 11 11 9 8 9 10 8 7 8 9 9 8 9 10 10 9 9 10 10 10 11 10 10 9 10 11 11 11 13 14 14 14 16 17 17 17 17 18 19 20 22 21 18 17 17 17 16
27 26 25 24 23 22 22 23 23 21 19 20 20 20 20 19 19 19 19 18 17 16 17 18 18 17 15 14 13 15 15 13 13 13 12 12 10 9 9 11 11 9 9 10 9 8 8 9 9 8 9 10 11 11 11 10 9 9 10 10 9 9 9 11 12 12 12 13 14 14 15 16 16 17 18 18 18 19 19 18 16 15 14 14 15
27 27 26 24 23 23 22 23 23 21 19 19 19 20 20 19 19 19 18 16 15 15 16 17 18 17 16 14 14 14 14 15 15 14 13 12 12 10 9 10 10 9 9 9 9 8 9 10 9 9 9 10 11 11 10 9 9 10 11 10 9 9 10 11 12 11 11 12 13 14 14 15 17 18 17 17 18 19 18 16 15 15 16 17 18
27 27 27 25 23 23 23 22 22 21 19 18 18 18 19 20 19 18 16 15 14 14 14 15 16 17 16 16 15 14 13 14 15 14 14 13 12 12 11 11 10 10 10 10 10 10 10 11 11 10 10 10 10 10 11 11 11 11 11 11 11 10 10 10 10 9 9 9 10 13 15 16 18 19 17 16 18 18 17 18 18 18 19 21 22
28 28 28 28 24 23 23 23 22 21 20 20 18 17 18 19 18 17 15 14 14 15 15 15 15 15 17 17 16 13 12 13 14 13 13 13 12 12 13 13 13 12 12 12 12 11 10 10 12 12 12 12 12 12 12 13 13 13 12 12 12 11 10 9 8 8 7 8 10 12 15 16 18 18 18 18 19 18 16 18 20 20 21 23 23
29 29 29 29 26 24 25 24 23 22 22 21 21 20 19 18 18 18 16 15 15 15 14 15 15 15 16 16 14 12 12 12 13 13 13 14 13 12 11 12 13 13 12 13 12 10 10 11 12 12 12 11 10 9 9 11 13 15 14 12 11 11 9 8 7 8 8 10 11 12 14 16 17 18 20 21 20 19 18 17 18 20 22 23 23
28 29 28 28 27 25 25 24 23 22 23 24 23 22 20 17 17 19 18 16 16 14 13 13 15 17 16 15 14 13 13 13 13 14 14 14 14 12 10 10 10 11 11 12 11 9 10 11 9 8 9 8 8 9 10 11 12 14 15 13 11 9 9 9 10 10 11 11 12 13 13 15 17 19 20 21 21 21 21 19 18 20 23 24 23
26 26 25 25 25 24 23 22 20 20 21 22 22 21 19 17 16 18 18 17 16 15 14 15 17 18 16 15 15 14 14 15 15 15 15 14 14 13 13 12 10 10 11 11 10 9 9 8 7 7 9 8 8 9 11 11 11 12 13 12 11 10 10 11 12 11 10 11 12 12 13 15 18 18 19 21 21 21 20 19 19 21 21 21 23
25 24 23 22 23 23 21 20 18 17 18 19 18 17 17 17 16 18 19 19 17 17 16 17 18 18 15 14 14 13 14 16 16 16 16 16 15 14 14 14 12 11 11 9 7 6 5 4 5 8 8 7 7 7 7 8 10 9 10 11 11 11 11 11 11 10 10 11 12 13 13 15 17 18 18 19 19 19 19 19 20 19 17 16 18
20 20 20 20 19 20 19 19 19 17 16 17 17 17 17 17 17 18 20 20 18 17 16 16 18 18 16 16 15 14 15 16 16 16 16 16 16 15 15 14 12 11 10 7 5 3 2 1 3 5 7 6 6 6 6 7 7 7 7 8 9 10 9 9 9 9 10 11 13 13 13 13 15 15 15 16 16 17 18 18 17 16 16 15 15
20 17 17 17 16 16 15 14 16 18 17 16 18 19 19 20 20 20 19 18 16 16 16 16 17 18 18 18 17 16 16 16 15 15 15 15 16 16 15 13 11 10 9 8 7 5 4 3 4 5 6 6 6 7 7 7 6 6 6 6 6 6 5 5 6 7 8 9 11 11 10 10 12 12 12 13 14 13 14 14 14 13 14 14 15
23 19 17 16 15 16 15 10 9 14 17 17 18 19 20 20 20 20 19 18 17 17 16 16 16 16 17 17 17 16 15 14 13 12 12 12 12 12 13 13 12 11 10 9 8 6 5 5 5 5 6 6 7 7 7 6 6 7 7 6 5 3 3 3 4 4 4 3 4 5 5 7 10 11 11 11 11 11 12 12 11 11 12 13 14
20 18 17 16 15 16 17 13 11 13 15 16 17 18 18 18 18 18 17 17 17 17 16 16 16 16 15 15 14 13 12 11 10 10 10 10 9 8 10 12 13 11 10 9 8 6 6 5 5 5 6 6 6 6 6 6 6 6 6 5 4 2 3 3 2 2 3 3 3 5 5 7 9 9 9 9 9 11 11 10 9 10 12 14 14
16 16 16 16 16 16 15 16 17 17 16 15 15 16 16 16 17 17 16 16 15 15 15 15 15 15 14 13 12 11 10 9 9 9 8 8 8 8 10 12 13 12 10 8 7 6 5 5 5 5 5 5 5 5 5 6 6 6 6 5 3 3 4 4 3 3 5 6 7 7 6 7 8 8 8 9 10 11 10 10 11 12 14 15 14
14 15 15 15 16 16 15 16 15 13 13 14 15 14 14 14 14 14 15 15 15 14 13 13 13 12 11 9 8 7 7 7 7 8 7 7 8 9 10 11 12 11 9 8 6 5 4 4 4 4 4 4 4 4 4 5 5 6 6 5 4 4 4 4 5 5 5 5 5 5 5 6 7 6 7 8 10 11 11 12 13 14 15 13 12
15 15 15 15 16 16 17 17 15 12 12 14 14 13 12 12 11 11 12 14 14 14 14 13 12 10 9 7 5 5 5 5 6 6 7 7 8 9 11 12 12 11 10 8 6 5 4 3 2 1 2 3 3 3 4 4 4 5 5 4 3 3 3 4 4 2 2 5 6 6 5 7 8 8 8 10 11 12 13 13 14 14 14 12 12
17 17 16 16 16 16 16 17 17 14 13 13 13 12 12 12 11 11 12 14 15 15 14 13 12 10 8 7 6 5 4 4 3 4 5 6 8 9 11 12 13 13 11 10 8 6 5 4 2 1 2 3 3 3 3 3 3 3 2 2 1 2 3 5 5 5 6 7 8 9 9 11 11 10 10 10 11 11 12 12 13 13 13 13 14
16 16 15 14 13 12 13 15 15 14 13 13 14 13 13 13 13 14 14 15 16 15 14 13 13 12 10 9 8 7 6 5 4 3 4 5 7 9 12 13 13 12 12 11 11 9 6 4 1 0 1 1 1 1 0 1 2 2 2 3 4 4 5 6 7 8 8 8 8 9 10 10 10 11 11 11 11 12 12 13 14 15 15 15 16
14 13 12 10 9 10 12 14 14 13 14 15 14 14 14 14 15 15 15 15 15 15 15 14 15 14 13 12 12 11 10 9 8 6 5 4 5 8 10 10 11 12 11 11 10 8 5 3 2 2 1 0 1 2 3 4 5 5 6 6 5 4 5 7 8 8 8 7 7 7 9 10 11 12 13 13 13 13 13 14 14 15 16 16 17
12 12 11 11 11 12 13 14 15 15 15 15 15 15 15 15 16 17 17 17 17 18 17 17 17 16 15 14 14 14 13 12 12 10 8 6 4 5 6 8 10 10 9 8 7 5 3 2 2 2 1 1 1 2 4 5 6 6 7 6 5 6 8 9 8 7 8 9 9 10 12 13 13 15 15 15 15 15 15 14 14 14 14 14 15
15 15 15 16 16 17 17 16 16 17 17 17 17 17 17 17 18 18 17 17 17 17 17 17 17 17 16 15 15 16 15 14 13 12 11 10 9 7 6 8 6 4 4 5 5 4 3 2 2 2 2 2 1 2 3 5 6 6 6 7 9 9 9 8 7 8 10 11 12 14 15 16 15 16 16 16 16 15 14 14 14 14 13 12 13
19 18 18 19 18 19 18 17 16 16 16 17 18 19 18 18 18 16 15 15 15 15 16 16 17 17 16 15 15 14 14 13 13 12 12 12 11 10 8 7 5 4 4 4 3 3 2 1 2 2 2 2 2 2 3 5 6 5 7 9 9 8 8 8 9 10 12 13 15 15 16 16 15 15 16 16 15 14 13 14 15 15 14 13 12
18 18 17 17 17 18 17 17 17 17 17 17 19 19 19 18 17 15 15 14 14 15 15 15 16 16 16 15 14 12 9 9 10 11 11 10 10 9 8 6 6 5 4 4 4 4 3 2 1 1 2 1 1 1 3 5 6 8 10 9 9 9 10 11 11 12 13 14 15 15 14 14 14 13 13 14 13 13 15 16 16 17 16 14 13
15 15 16 15 15 15 15 15 15 15 15 16 16 16 15 14 14 13 12 12 12 12 12 12 13 14 15 14 12 9 7 7 7 8 8 8 8 7 7 6 5 5 4 4 3 2 2 1 2 3 5 4 3 6 9 11 12 12 12 11 12 13 13 13 13 13 14 13 13 13 13 12 12 11 12 13 14 15 16 16 16 18 17 16 15
12 12 13 13 13 12 12 12 12 12 12 13 12 11 11 11 11 11 11 11 12 12 11 10 10 13 14 13 10 8 7 6 6 5 6 6 6 6 6 6 6 6 5 4 3 3 4 3 4 9 13 14 14 15 16 15 14 14 13 14 15 16 15 14 13 13 12 12 12 12 12 12 12 12 13 14 15 16 16 16 17 18 17 16 17
12 10 10 11 12 11 11 12 12 12 12 12 11 10 10 10 11 11 11 11 12 12 12 11 11 12 14 14 12 10 9 7 5 5 5 5 6 5 6 7 7 8 7 6 6 7 7 7 9 12 14 16 16 17 16 16 15 14 14 14 15 15 14 13 13 12 12 12 13 12 11 12 13 13 14 14 15 16 16 16 16 17 16 16 18
13 11 11 12 12 12 11 12 13 13 14 14 13 12 12 12 12 12 12 11 10 10 10 11 11 11 12 13 12 10 9 7 5 4 3 4 4 4 5 6 7 8 9 8 7 8 9 11 13 13 13 13 14 15 15 15 14 14 13 13 13 14 14 13 13 12 12 12 12 11 11 12 13 13 13 14 15 15 15 15 16 16 17 18 19
12 12 13 13 13 11 11 12 12 13 14 15 15 15 14 13 12 11 11 10 9 7 7 8 9 9 9 10 9 7 5 4 3 3 3 3 3 3 4 5 5 7 8 7 8 10 12 13 13 13 12 13 13 13 12 12 12 12 11 12 12 13 13 13 12 11 12 11 10 10 11 12 12 13 13 14 14 14 14 15 16 17 19 20 20
10 11 12 13 12 11 11 12 12 12 13 13 14 14 14 12 10 9 8 8 7 6 5 6 6 6 5 6 5 4 3 3 3 3 3 3 3 3 3 3 5 6 6 5 6 10 12 12 12 11 11 11 11 10 9 9 9 9 9 10 12 13 13 12 12 11 11 10 9 10 11 11 12 13 13 14 14 13 14 15 16 18 19 20 19
11 10 10 12 12 11 12 14 14 13 12 12 11 11 12 11 10 9 8 7 7 7 6 6 6 5 5 5 5 5 5 4 4 3 3 2 2 2 2 3 4 5 5 5 5 6 7 7 7 7 7 7 7 7 7 7 8 8 8 9 11 11 11 10 10 9 9 9 10 11 11 11 12 12 13 13 13 14 15 16 17 19 20 19 18
13 12 10 12 13 14 14 15 14 13 12 12 11 10 9 9 10 10 8 8 8 8 8 8 7 7 7 7 7 7 6 4 4 4 3 3 3 3 3 3 4 4 4 5 4 4 4 4 4 5 6 6 6 7 7 7 7 7 7 8 9 8 8 7 6 6 7 7 8 10 10 10 10 11 11 12 13 14 16 17 18 19 20 20 19
16 15 13 13 15 15 14 14 13 12 11 10 9 8 7 7 8 8 8 8 7 6 7 8 8 7 6 6 6 6 5 4 3 4 4 4 4 3 2 2 2 3 4 5 6 5 4 4 3 3 5 6 7 8 8 8 8 7 7 7 7 6 6 6 6 7 7 7 8 10 10 10 11 11 12 13 14 15 16 17 17 17 18 18 18
16 15 14 14 14 13 12 12 12 11 11 10 8 8 7 8 8 9 9 8 8 8 7 8 8 7 6 5 5 5 5 4 5 6 7 8 8 7 6 6 6 7 7 7 8 7 5 5 4 4 6 9 10 9 9 9 8 7 7 6 5 5 5 6 6 7 7 8 9 10 10 11 12 13 14 14 16 16 16 16 17 17 17 18 18
13 12 12 12 12 12 11 11 11 11 11 10 9 8 8 9 10 10 9 9 9 9 9 9 9 9 8 7 6 6 7 7 7 8 9 10 10 9 9 9 9 10 11 11 11 11 10 10 9 9 10 11 11 10 9 8 7 6 6 5 5 6 6 6 6 6 7 8 9 9 10 11 12 13 14 15 16 16 16 17 18 18 18 19 19
12 12 11 11 12 11 11 11 11 11 11 11 10 8 8 9 9 10 10 10 10 11 12 11 12 12 11 9 8 9 8 8 7 6 7 8 9 8 7 7 8 10 10 10 11 11 13 13 12 11 11 10 10 9 8 7 6 6 5 5 6 6 7 7 6 6 6 7 8 9 10 11 12 14 15 16 16 17 17 17 18 18 19 19 19
13 13 13 12 12 12 12 13 12 11 11 12 11 10 9 9 8 7 7 6 8 11 13 13 14 14 13 11 11 10 9 7 6 4 2 5 7 6 3 3 6 9 10 9 9 9 10 10 10 9 9 8 8 8 7 6 6 5 4 4 5 6 6 6 6 7 7 7 8 9 10 11 12 14 15 16 16 16 17 17 17 18 18 18 17
14 15 15 14 14 14 14 14 13 12 11 12 12 11 11 10 9 8 7 5 5 8 11 13 14 14 13 13 13 12 10 7 5 2 2 5 5 3 2 4 8 11 10 8 7 7 7 8 7 7 6 6 6 6 5 5 5 4 3 3 4 5 5 5 6 6 7 7 8 8 9 10 11 12 14 14 14 15 16 16 16 16 16 17 17
14 16 18 17 15 15 15 13 12 12 11 12 12 12 12 11 9 8 7 6 5 7 10 13 14 13 12 13 14 13 11 8 5 1 2 3 3 4 6 7 9 10 9 7 6 6 6 6 6 5 5 4 4 4 3 3 3 3 3 3 4 5 5 6 6 6 6 6 7 8 9 10 11 13 15 14 14 15 16 17 17 17 17 17 17
15 15 18 18 17 15 14 13 12 11 10 10 11 11 11 11 9 8 8 6 5 5 8 11 12 11 11 13 13 11 9 6 3 1 0 3 5 8 9 9 9 9 8 7 5 4 4 4 4 4 4 4 3 3 2 2 2 3 3 3 3 4 4 4 5 5 5 6 8 9 11 12 13 15 16 16 16 18 18 18 18 18 18 17 17
17 16 17 19 18 16 15 15 14 12 10 10 11 10 10 10 11 10 9 7 5 4 7 10 11 10 11 13 12 8 6 4 4 5 5 7 9 11 11 11 10 9 8 7 5 4 3 2 3 3 3 4 3 3 3 3 3 3 2 2 2 3 3 4 4 5 6 8 9 11 12 13 14 16 17 17 17 18 18 18 17 17 17 17 17
18 17 18 19 19 18 17 16 16 14 13 13 13 12 11 11 11 11 10 8 7 7 10 12 12 13 14 13 10 7 6 6 8 9 9 10 11 11 11 10 9 8 7 6 5 3 2 2 2 3 3 4 4 4 4 4 4 3 2 2 2 2 3 4 5 6 8 9 10 11 12 12 14 16 17 17 17 17 17 16 16 16 16 16 16
19 20 19 19 20 20 19 19 18 18 17 16 15 13 13 12 11 11 11 10 9 10 12 13 14 14 14 12 9 9 10 10 10 10 9 9 9 9 9 8 8 7 5 5 4 3 2 1 1 2 3 3 4 4 4 4 4 4 3 3 3 3 4 5 6 7 9 10 10 10 11 12 14 16 16 17 17 17 16 16 17 17 16 16 15
21 23 23 21 21 21 21 21 20 20 19 17 16 15 15 14 12 11 11 10 9 10 13 14 14 14 13 11 10 11 12 12 11 10 8 8 7 7 7 6 5 4 4 3 2 2 1 1 1 2 3 4 4 5 5 5 4 4 3 4 4 4 4 5 6 7 8 9 10 11 12 13 15 16 17 18 18 18 17 16 17 16 15 15 15
21 22 22 22 21 21 21 21 21 21 19 17 17 17 17 15 14 14 13 11 9 10 13 15 15 15 14 13 12 13 13 12 11 10 9 8 7 6 5 3 2 2 1 1 2 2 3 3 3 3 4 4 5 5 5 5 4 4 4 4 4 4 5 6 7 8 9 9 11 12 13 15 17 18 19 20 20 19 17 16 15 14 14 14 15
23 22 20 20 22 23 23 21 21 21 20 18 18 19 17 16 15 15 14 12 11 12 14 16 17 16 14 13 13 13 13 13 12 11 9 8 6 4 3 1 1 2 3 3 4 4 5 5 5 5 4 4 4 5 5 5 5 5 4 4 4 5 7 8 8 9 10 10 12 13 15 17 19 20 20 20 19 18 16 15 14 13 13 14 14
25 24 22 21 23 26 27 25 23 22 20 19 19 20 20 19 17 16 14 13 14 15 17 17 17 16 14 13 13 13 13 12 10 9 7 6 4 2 1 2 2 3 4 4 5 6 6 6 5 4 3 3 4 4 5 5 6 5 5 4 5 7 8 9 9 10 10 11 13 14 16 18 20 21 20 18 16 15 15 14 13 12 13 13 13
23 24 24 24 24 25 27 27 25 24 22 20 20 21 22 20 19 17 16 16 17 18 18 17 15 15 14 14 13 12 11 10 8 7 5 4 2 1 1 2 3 3 4 5 6 5 4 3 2 2 2 3 4 5 6 7 8 7 6 5 7 9 10 10 10 10 10 11 13 14 16 19 21 20 18 15 14 14 14 13 12 12 13 13 14
21 23 25 25 24 24 25 26 26 25 23 22 22 23 23 21 20 19 19 20 20 19 17 16 15 14 13 13 12 10 9 8 7 6 4 3 1 1 1 2 2 2 3 5 5 4 2 2 2 3 3 4 5 6 7 8 9 8 7 7 9 10 10 10 9 10 11 12 13 14 16 19 20 18 15 13 13 13 13 13 13 14 14 14 15
18 20 22 24 25 24 23 24 25 25 24 24 25 25 23 21 18 19 21 23 21 19 17 15 14 13 12 10 10 9 8 8 7 6 5 4 3 3 3 3 2 1 1 2 2 2 2 3 4 4 4 5 6 7 8 9 9 8 8 9 9 10 9 9 9 11 13 13 13 14 17 19 19 17 15 13 13 13 13 13 15 15 15 15 16
Wind_Direction
196 199 201 202 203 203 205 205 204 205 206 208 209 207 208 211 216 220 218 217 217 216 215 216 217 215 215 218 222 223 227 224 219 221 224 231 238 232 231 250 256 248 252 262 252 249 271 284 272 261 271 280 284 281 276 274 273 281 305 308 288 269 262 254 250 274 294 305 313 321 330 335 337 342 343 341 342 340 337 335 333 331 332 333 333
195 199 200 202 204 204 205 204 203 205 209 211 210 209 211 214 217 219 217 216 216 215 215 216 217 217 219 223 223 221 225 227 225 225 229 237 242 236 235 249 260 253 250 258 262 256 264 274 273 269 276 286 289 281 278 280 276 279 302 315 300 278 267 264 261 268 288 304 314 323 332 336 335 339 343 341 341 342 341 341 338 333 331 330 329
194 198 200 202 206 206 205 204 203 207 212 212 211 211 215 216 216 216 216 215 214 214 215 215 214 217 221 222 220 218 222 228 225 223 228 236 242 242 241 245 254 257 255 261 266 260 263 271 271 267 274 286 290 289 292 293 288 287 295 305 305 291 275 270 267 269 283 299 310 319 327 332 331 335 338 337 339 344 347 349 349 344 341 342 343
194 197 199 202 207 209 208 205 204 209 214 215 214 215 217 218 217 218 218 217 217 216 215 214 213 218 221 220 219 218 219 223 223 223 229 235 243 250 248 244 248 258 264 262 258 257 264 269 268 269 277 285 289 292 296 294 286 283 288 295 299 293 282 276 276 277 281 289 300 311 322 327 328 330 334 335 340 346 351 355 357 355 354 354 352
195 197 198 200 205 208 207 206 207 212 215 218 221 220 219 218 219 222 220 216 218 219 216 216 215 216 220 220 222 223 223 225 225 224 230 236 242 249 253 247 245 253 264 262 258 261 266 269 271 274 278 282 284 287 290 291 289 285 285 289 290 285 280 278 281 284 282 284 296 309 319 323 323 325 331 335 337 340 344 346 347 347 345 341 339
196 197 197 200 204 206 205 205 207 212 215 219 224 220 218 219 220 224 224 218 221 223 219 221 223 222 222 221 225 230 228 224 223 223 227 233 239 247 254 253 248 254 263 264 265 265 267 274 279 276 276 280 280 283 286 288 290 289 282 279 280 279 280 280 280 281 282 286 299 311 317 321 321 321 326 330 329 330 335 336 335 336 337 336 334
196 197 197 199 204 205 205 206 208 209 213 218 220 220 220 219 218 222 223 216 220 226 221 221 227 231 226 221 224 231 228 222 220 220 225 232 239 246 252 252 249 253 260 262 264 267 276 291 294 289 286 284 283 286 288 285 284 284 281 277 276 278 279 277 271 271 281 294 304 311 314 317 317 316 319 322 322 324 331 332 330 331 334 333 332
196 196 197 198 202 204 203 207 209 210 214 216 217 221 221 216 213 217 218 213 215 221 220 216 219 225 222 216 218 226 228 225 218 217 224 232 240 246 247 246 246 249 255 259 263 268 276 285 293 299 295 288 288 291 291 289 285 282 279 274 270 273 275 275 275 282 291 298 303 307 310 311 311 311 314 318 320 324 330 329 325 329 332 330 329
193 193 196 199 200 200 201 204 207 211 215 217 218 223 223 215 208 210 214 215 212 211 217 217 216 220 218 211 213 220 225 225 220 219 225 231 239 244 241 240 245 247 254 261 265 272 271 266 272 295 296 287 284 282 284 291 291 285 281 276 270 274 282 287 290 292 294 296 300 305 307 305 307 310 313 317 319 320 323 325 324 327 328 324 323
188 187 192 197 195 194 195 198 201 206 212 216 219 220 220 216 207 203 208 213 209 207 215 216 214 218 216 210 214 220 221 223 224 223 224 227 233 237 238 242 243 246 258 267 270 277 278 265 262 280 284 278 273 275 281 292 297 290 281 274 269 275 286 293 294 292 292 295 300 305 303 302 309 314 313 316 319 318 320 324 324 324 325 323 322
184 182 184 186 185 185 188 189 192 194 197 199 201 202 204 206 202 198 200 205 206 207 210 212 214 217 216 214 218 218 216 219 225 226 226 227 230 232 236 240 241 248 262 269 265 269 278 280 275 271 262 252 256 271 284 297 304 297 275 262 264 273 284 291 294 294 296 300 303 303 300 302 311 319 320 321 323 319 318 320 319 320 324 324 321
185 184 179 177 177 179 182 185 187 187 185 181 178 178 181 183 182 185 190 197 202 202 203 208 212 214 214 215 214 210 212 219 224 226 228 230 232 235 237 237 240 249 254 245 226 223 239 252 239 238 237 241 258 277 289 295 302 298 276 262 266 276 286 294 299 303 303 302 299 299 303 309 316 323 326 326 322 316 314 316 317 320 323 323 318
193 190 178 177 178 173 172 178 184 185 182 178 174 171 168 166 167 170 175 180 184 184 186 191 194 198 203 206 205 206 211 218 223 227 232 234 236 239 238 234 234 236 229 214 206 203 193 192 201 214 237 260 276 286 292 291 286 281 277 275 277 282 292 301 304 302 299 296 295 301 315 321 319 322 325 323 319 320 322 321 322 325 324 324 322
192 187 178 182 185 179 175 177 189 187 179 177 175 170 167 164 164 166 169 171 173 173 174 177 178 182 189 193 195 198 202 209 217 223 229 233 238 239 232 224 222 221 215 212 215 211 206 210 219 229 243 258 270 277 283 282 275 272 273 278 286 287 288 299 298 295 299 304 305 314 326 325 322 324 327 326 326 333 334 330 330 331 326 325 323
187 185 185 190 193 191 188 191 209 206 186 177 175 171 168 165 162 165 168 170 172 172 174 176 174 174 179 184 186 188 190 196 204 211 219 225 230 228 216 212 215 217 214 216 220 220 222 227 236 245 250 255 260 264 270 274 274 273 272 276 283 273 267 276 280 320 349 354 331 319 316 317 322 324 322 325 334 341 341 334 330 330 328 328 327
186 188 192 196 197 198 193 192 203 204 189 177 174 169 166 163 159 160 161 158 159 164 169 172 171 171 175 181 186 188 190 198 204 212 221 219 214 210 205 206 210 209 206 210 216 217 223 231 240 248 254 259 263 268 272 276 280 284 284 285 283 256 242 238 251 308 327 322 317 321 321 323 326 323 321 328 337 342 338 328 329 336 339 341 342
184 187 191 194 192 187 179 171 172 178 175 171 168 164 161 158 156 158 158 153 152 156 159 160 163 168 171 177 188 193 195 205 215 222 226 222 214 207 201 199 198 195 192 194 199 202 206 223 235 243 254 266 274 280 284 288 293 293 290 288 275 250 243 251 272 298 320 334 348 358 356 354 358 357 356 2 3 1 356 350 352 354 350 348 343
173 176 178 182 180 175 172 165 158 157 163 161 158 158 157 153 152 156 159 155 152 155 161 159 158 164 168 168 178 192 198 207 217 222 225 225 220 212 206 200 191 187 185 180 181 184 179 182 198 224 261 275 283 291 295 296 292 286 283 279 268 262 286 308 314 326 58 67 62 63 59 53 54 49 39 34 30 26 21 14 10 4 355 351 344
155 161 162 161 160 161 163 164 166 168 164 156 153 153 150 145 144 148 151 151 150 153 160 159 153 152 155 153 150 160 172 177 192 204 204 209 212 210 208 202 191 185 182 174 170 174 174 172 182 223 255 267 275 282 287 291 287 284 284 287 305 355 12 23 37 61 80 82 77 74 75 77 71 58 45 40 37 34 32 29 28 24 17 12 7
148 152 153 150 149 151 154 159 166 170 165 158 154 152 149 146 146 147 148 149 150 151 153 151 143 136 135 132 125 120 117 115 117 139 165 183 196 199 201 201 193 184 178 170 165 166 165 161 153 226 260 264 262 255 325 39 45 60 64 56 44 40 50 65 73 80 83 79 72 67 63 60 52 42 36 35 37 38 36 35 34 32 30 26 22
155 155 158 163 166 170 171 174 175 173 167 162 156 151 149 148 148 148 147 146 146 145 143 139 132 126 124 122 115 107 99 96 94 97 118 147 173 188 191 182 169 163 155 146 147 152 152 139 114 99 84 75 123 109 80 67 70 69 57 44 36 48 84 94 93 93 86 71 58 48 39 33 35 36 32 30 32 30 26 25 25 25 29 29 25
149 151 154 160 162 160 162 167 168 163 161 161 156 149 146 144 141 139 138 138 138 137 135 131 126 123 121 117 113 106 98 92 87 82 82 88 114 158 153 126 130 147 143 125 116 111 97 84 84 80 57 50 112 107 81 68 63 54 47 52 69 94 107 107 97 82 67 54 47 41 34 32 33 33 30 26 24 19 16 18 18 18 26 34 35
131 135 136 136 138 138 138 141 144 143 144 145 142 137 134 133 131 128 127 129 132 133 131 130 129 127 121 113 108 102 95 89 83 77 74 73 76 86 89 86 95 124 120 96 79 66 61 54 53 55 30 21 75 99 79 57 43 45 68 89 96 100 103 96 77 61 52 47 46 43 38 35 34 33 31 25 19 17 18 21 21 18 22 34 44
125 127 128 128 128 128 129 131 133 134 135 134 132 129 129 129 129 128 128 133 138 140 139 137 135 130 123 114 106 100 94 89 83 77 73 73 75 76 73 70 67 58 55 53 44 38 35 31 48 57 41 41 77 95 64 34 33 67 103 106 98 91 85 71 57 50 47 47 47 43 38 34 34 34 29 21 17 21 26 29 28 25 26 34 45
121 124 127 129 128 128 128 130 131 132 132 131 129 129 131 134 136 140 145 150 151 147 143 141 137 132 127 120 114 112 107 99 93 82 71 67 68 69 68 66 56 40 30 28 18 1 352 5 63 67 36 27 211 161 72 60 74 98 108 103 90 79 69 58 51 49 50 52 48 41 34 30 27 24 18 15 19 27 29 28 26 24 24 29 35
119 124 125 126 128 130 131 130 130 132 132 131 130 130 132 136 139 145 154 159 159 155 151 148 144 140 136 131 130 133 129 112 102 89 74 66 63 60 55 49 39 25 19 19 14 8 23 86 125 87 67 76 121 123 107 101 101 101 96 87 78 70 60 54 53 55 58 55 45 35 27 19 14 11 13 21 29 29 25 23 23 21 20 21 24
126 129 127 128 129 130 132 133 133 136 138 138 137 136 138 142 143 146 149 148 147 149 152 154 156 155 153 151 149 143 131 120 111 92 74 67 62 51 34 22 15 5 2 10 30 56 68 91 111 98 92 95 102 106 104 101 98 92 83 76 70 64 60 57 56 59 59 48 32 25 21 18 19 23 26 29 30 26 22 22 24 23 21 21 25
134 133 136 139 136 132 136 139 141 146 150 151 149 146 147 147 141 135 135 134 133 134 135 138 146 155 161 163 158 142 132 128 118 93 70 55 49 36 20 14 12 8 13 28 49 60 72 95 112 110 104 99 95 94 92 88 85 80 73 69 66 62 57 52 50 54 49 31 18 19 27 27 27 28 29 27 27 25 24 25 29 30 28 27 27
141 140 147 153 149 144 141 140 141 144 146 145 141 136 134 134 128 121 118 117 116 116 117 120 126 138 151 156 152 141 134 127 107 85 64 48 38 27 18 19 18 17 21 33 50 68 88 103 108 108 105 98 92 89 86 83 80 75 67 61 56 51 44 40 42 42 30 16 16 28 32 25 21 23 26 29 30 28 27 29 33 31 27 26 25
147 147 152 157 160 160 155 149 145 145 145 141 137 131 125 123 122 119 116 111 107 104 104 108 113 122 135 142 140 132 124 112 90 75 67 58 50 42 33 21 12 18 27 39 57 73 87 96 98 98 98 96 91 86 82 82 81 75 66 57 49 44 41 38 35 29 21 23 32 33 23 17 19 25 30 33 33 30 27 28 27 22 21 22 19
159 163 166 166 168 172 172 165 155 151 150 148 145 140 133 127 124 121 117 114 111 108 108 109 112 113 118 129 135 125 107 90 72 62 58 55 48 43 36 10 355 8 24 42 63 73 81 89 94 94 91 90 87 81 77 79 79 74 66 56 48 43 41 37 29 24 26 32 30 21 18 24 30 32 34 35 33 28 22 19 16 15 17 18 15
172 175 178 178 175 174 174 170 161 154 153 154 156 154 147 141 135 126 118 115 114 113 114 114 112 105 95 94 100 98 88 73 57 45 35 32 24 7 354 341 342 357 14 32 56 67 71 79 96 104 97 89 89 88 85 86 86 81 73 64 56 50 46 39 27 21 21 20 17 23 33 37 36 37 38 35 29 24 20 17 16 15 14 14 11
181 175 172 174 172 168 167 166 161 157 155 153 155 157 155 151 146 138 131 125 120 117 117 117 113 107 99 94 93 90 82 64 39 20 5 354 335 315 308 315 328 348 12 30 45 55 51 56 93 126 122 110 109 113 113 112 110 103 92 81 72 66 59 46 28 23 28 30 35 44 46 41 39 43 43 37 31 28 25 21 17 13 11 9 6
186 177 170 168 167 164 164 165 165 163 161 159 159 161 163 163 160 158 157 153 148 145 142 137 134 128 117 109 107 100 85 57 35 28 28 27 19 8 3 355 5 23 29 29 33 38 43 57 85 123 134 133 135 136 132 127 124 117 105 92 82 72 61 47 40 43 49 52 55 54 49 45 46 45 40 35 32 29 26 22 17 13 10 5 358
180 176 175 174 173 170 169 170 171 170 170 174 178 183 191 194 187 181 179 177 180 186 183 172 164 161 159 149 134 121 108 90 77 67 61 57 55 55 63 69 67 62 57 50 50 54 60 71 85 103 121 128 129 126 123 120 115 110 102 92 81 70 58 47 47 50 53 55 57 54 49 46 44 38 32 29 28 26 22 18 14 9 5 0 354
181 180 182 184 185 186 185 186 186 183 180 180 180 180 188 195 196 193 193 198 204 205 201 194 187 185 188 182 159 141 133 118 99 82 71 62 52 49 55 61 65 71 73 71 73 78 83 88 97 104 111 116 114 111 111 111 107 106 104 98 90 81 73 67 63 59 58 57 54 46 41 37 32 27 23 20 19 19 15 10 6 3 359 356 351
190 188 189 188 191 195 197 197 198 199 198 195 190 180 177 183 192 199 206 217 225 223 214 204 196 196 198 191 168 153 148 138 122 102 80 56 35 26 36 56 76 88 88 82 83 87 88 88 93 97 98 98 97 96 97 96 93 97 102 101 96 91 85 82 78 69 62 58 49 39 34 32 27 21 18 15 13 12 8 2 359 355 352 349 346
200 197 195 194 196 199 197 194 196 202 206 206 204 200 193 188 189 193 197 206 219 222 219 210 203 205 206 193 172 163 161 156 152 143 72 20 8 2 10 69 105 112 107 95 90 91 89 88 89 90 89 89 90 89 86 82 82 86 91 93 94 91 87 83 78 72 64 56 50 41 34 30 25 18 14 11 8 5 360 355 351 347 343 341 339
205 202 202 201 200 200 198 196 197 202 208 212 213 212 209 205 202 200 197 189 187 202 210 208 205 209 209 193 177 170 169 168 173 190 326 350 3 25 81 120 125 123 117 106 98 96 94 93 92 91 89 87 85 83 85 86 88 86 86 87 86 85 83 80 75 70 63 55 50 41 29 22 16 9 6 4 1 356 351 347 344 340 335 332 330
210 208 208 207 204 201 201 203 207 210 214 217 217 214 211 208 207 209 213 212 204 205 209 209 209 213 211 197 185 179 176 175 182 231 337 2 46 96 111 121 126 124 117 110 104 99 96 94 89 86 82 76 72 73 74 74 75 75 73 77 83 85 84 79 70 62 54 44 35 25 18 13 6 2 2 1 355 349 346 342 338 335 331 327 325
223 217 215 214 212 210 211 213 214 212 210 208 206 204 206 210 216 220 219 216 216 218 212 208 210 213 207 193 185 182 182 185 197 237 33 98 114 116 114 115 119 119 117 115 111 103 96 90 79 73 69 64 57 52 43 35 41 52 61 73 82 84 78 67 54 42 31 22 14 9 7 5 2 360 359 356 350 345 342 338 334 331 329 326 325
229 227 222 219 218 219 222 223 219 212 207 205 205 208 216 221 221 219 216 215 218 207 190 186 187 183 177 175 176 179 185 183 168 155 142 129 123 120 117 115 117 118 119 119 119 115 104 83 65 56 51 47 40 32 25 20 18 22 33 50 57 54 44 34 25 16 9 4 0 358 357 356 356 356 356 352 347 342 339 335 332 330 327 326 326
234 235 230 225 224 225 228 228 224 217 215 218 220 221 222 218 213 214 218 221 215 192 176 171 169 164 164 168 172 171 171 164 154 146 138 128 122 120 119 117 117 117 117 118 118 119 112 80 62 48 39 33 22 12 14 16 12 3 355 353 360 9 12 10 5 359 355 353 353 354 356 357 357 356 354 350 346 342 339 335 332 330 327 326 327
244 245 240 234 231 231 231 231 228 222 220 223 224 222 218 214 212 214 216 213 203 188 178 175 172 169 168 169 169 166 164 160 154 147 139 133 127 123 122 124 123 121 119 115 112 113 115 93 68 38 23 17 6 358 1 8 8 1 350 343 347 353 356 359 358 355 352 353 355 358 360 360 358 356 353 350 347 344 341 336 333 330 327 326 327
246 244 241 237 235 235 235 235 232 227 225 227 227 223 219 218 216 210 202 197 192 186 183 182 179 173 165 161 160 162 161 158 156 153 150 147 142 135 132 133 129 122 115 104 90 79 63 47 32 10 4 1 354 352 357 7 15 12 356 343 342 347 354 360 359 355 354 358 1 2 2 360 357 354 351 349 347 345 341 337 334 331 328 326 326
237 236 235 236 237 237 236 236 232 227 225 228 229 226 224 223 220 211 203 199 197 191 184 180 177 170 161 157 158 161 161 162 163 162 159 156 152 146 140 136 124 101 73 39 12 3 4 6 357 347 345 343 341 343 352 1 8 7 356 350 352 358 4 3 358 356 358 360 360 1 0 357 353 350 347 345 344 343 340 337 333 329 326 325 324
239 235 233 238 241 240 239 237 231 224 223 227 228 225 223 219 213 208 206 207 205 195 182 175 171 168 165 163 164 164 164 164 165 162 161 160 157 148 140 126 40 348 335 332 329 327 331 336 337 339 345 344 341 344 351 359 4 1 354 352 354 356 358 358 356 356 357 357 357 359 358 353 349 346 343 342 342 341 339 335 329 325 323 322 321
246 239 234 238 241 238 235 232 224 217 219 224 224 221 219 215 211 211 214 209 195 180 170 165 165 166 167 167 167 166 164 164 164 164 166 169 169 170 219 315 335 338 337 336 330 326 325 324 323 327 339 340 336 339 347 355 358 353 342 338 344 350 353 355 354 352 351 351 353 353 351 350 349 347 344 342 342 340 336 330 324 322 322 321 319
255 248 241 240 239 234 228 224 219 217 219 223 224 222 219 215 215 217 213 199 183 175 170 168 168 169 168 167 168 170 170 172 175 176 175 175 178 218 309 333 342 342 341 345 350 355 359 357 343 337 342 341 337 335 333 334 335 332 327 329 338 344 346 346 344 342 342 345 346 346 348 351 352 350 346 343 340 335 330 326 322 320 319 317 315
265 258 250 245 244 240 231 224 219 218 219 224 229 226 219 214 216 215 203 188 180 179 180 179 178 178 176 173 172 175 178 180 182 180 177 178 193 260 303 319 330 333 339 350 4 21 33 26 7 356 350 345 343 341 335 329 326 322 319 322 329 334 336 336 336 338 341 342 342 345 350 353 353 351 350 348 343 335 329 323 319 318 319 319 317
267 264 258 252 250 248 244 237 230 228 230 234 232 222 211 207 207 202 192 185 182 182 182 180 179 179 178 177 178 180 181 181 182 185 193 208 225 238 244 247 251 265 306 340 360 355 324 320 329 334 336 334 333 329 325 322 319 314 312 318 324 328 329 331 334 338 339 338 339 343 347 347 346 347 349 351 348 342 333 323 317 318 321 320 317
Height
840 842 844 845 847 848 850 851 852 853 854 856 856 857 858 859 860 861 861 862 863 864 865 865 866 866 867 867 867 868 868 868 868 869 869 869 870 870 871 871 871 872 872 872 871 871 871 871 871 871 871 871 871 871 871 871 870 870 870 870 869 870 870 869 869 867 866 867 867 866 865 864 863 862 861 860 858 858 857 856 855 853 852 852 851
838 841 842 844 846 847 848 850 851 852 853 854 855 856 857 857 858 859 860 861 861 862 863 863 864 865 866 866 866 867 867 867 868 868 868 869 869 869 869 870 870 870 871 871 871 870 870 870 870 870 870 870 870 870 870 869 870 869 869 869 869 869 869 869 868 867 866 865 865 865 864 864 863 861 861 859 858 857 855 854 853 852 851 850 850
837 840 841 843 845 846 847 848 850 851 852 853 854 854 855 856 857 857 858 859 859 860 861 861 863 863 864 865 865 865 866 866 867 867 867 868 868 868 868 868 869 869 869 870 870 870 870 870 870 870 870 869 869 869 869 869 869 868 868 868 868 868 868 868 867 867 866 865 864 864 863 863 862 861 860 859 858 857 855 853 852 851 850 849 848
836 838 840 842 844 845 846 847 849 850 850 851 852 853 854 854 855 856 856 857 857 858 859 860 861 862 863 863 864 864 865 865 866 866 866 867 867 867 867 867 868 868 868 868 868 869 869 869 869 869 869 869 869 868 868 868 868 868 868 868 867 867 867 867 867 866 865 864 864 863 863 862 861 860 859 858 857 856 854 853 852 850 849 849 848
835 837 839 841 842 844 845 846 847 848 849 850 851 851 852 853 853 854 855 856 857 857 858 859 860 861 862 862 863 863 863 864 864 865 865 866 866 866 866 866 867 867 867 867 867 867 867 867 867 867 867 867 867 868 868 867 867 867 867 867 866 866 866 866 866 865 865 864 863 863 862 861 860 859 858 857 856 855 854 853 851 850 849 848 848
833 835 838 839 841 842 843 845 846 847 848 848 849 849 850 851 852 853 854 856 858 858 859 860 861 861 861 862 862 862 862 863 863 864 865 865 865 866 866 866 866 866 865 865 865 865 865 865 866 866 866 866 866 866 866 866 866 866 866 866 865 865 865 865 865 865 864 864 863 862 861 861 859 858 857 856 855 854 853 851 850 850 849 847 846
831 834 835 837 839 840 842 843 844 845 846 846 847 848 849 850 851 852 853 855 856 857 857 859 860 861 861 861 861 862 862 862 863 863 864 864 864 865 865 865 865 865 864 864 864 864 864 865 865 865 865 865 864 865 864 865 865 865 864 864 864 864 864 864 864 864 863 863 863 862 861 860 859 858 856 856 854 853 852 850 849 848 848 846 845
829 831 833 835 837 838 840 841 842 843 844 845 846 846 847 848 850 851 852 853 854 855 855 856 857 859 860 860 860 861 861 862 862 863 863 863 863 864 864 864 864 864 864 863 863 864 864 865 865 864 864 864 863 863 863 863 863 863 863 863 863 863 863 863 863 863 862 862 861 861 860 859 858 857 855 854 853 852 851 850 849 847 846 845 844
827 829 831 833 835 836 838 839 840 841 843 843 844 845 845 846 848 849 850 850 852 853 853 854 855 857 858 859 860 859 859 860 861 861 862 862 862 863 863 863 863 863 863 862 863 863 863 863 863 863 863 863 862 862 861 861 861 861 861 861 862 861 861 862 861 861 861 860 860 859 858 858 856 855 854 853 852 851 850 850 848 847 845 844 842
826 828 830 832 833 835 836 837 838 839 840 842 842 843 844 845 846 847 847 848 850 851 852 852 854 856 857 858 858 858 858 858 859 860 860 861 861 861 861 862 862 862 861 861 861 862 862 862 862 862 862 861 861 860 860 860 859 859 859 859 860 860 860 860 860 860 859 859 858 858 857 856 855 854 853 852 851 850 849 848 847 846 844 842 840
824 826 828 831 833 833 835 836 837 838 839 840 841 842 843 843 844 845 846 847 848 849 850 851 852 854 855 856 856 857 857 858 858 858 859 859 860 860 860 860 860 861 860 860 860 860 860 860 860 860 860 860 860 859 859 859 858 858 858 858 858 858 858 859 858 858 858 857 857 857 856 855 854 853 852 851 850 849 848 847 846 845 844 842 839
825 826 826 830 832 833 834 835 836 837 838 839 840 841 842 842 843 844 844 845 846 847 848 849 850 852 853 854 855 855 856 856 856 857 858 858 859 859 859 859 859 859 859 859 859 858 858 858 859 859 859 859 859 858 858 858 858 857 857 857 857 857 857 857 857 857 857 856 856 855 854 853 852 852 851 850 848 848 846 846 845 844 843 842 840
829 828 826 829 831 831 833 835 836 836 837 838 840 840 841 841 842 843 844 845 846 846 847 847 848 849 850 851 853 853 854 855 855 856 856 856 857 857 857 858 858 858 858 857 858 857 857 857 858 858 858 858 858 857 857 857 857 856 856 856 856 856 856 856 856 855 855 854 854 854 853 852 851 850 850 849 847 846 845 845 844 843 842 841 840
827 826 825 828 830 829 830 834 838 838 836 837 839 839 840 841 841 843 843 844 845 846 846 847 847 848 849 850 851 851 852 853 853 854 854 855 855 855 856 856 856 856 856 856 856 856 856 857 856 857 857 856 856 856 856 856 856 855 855 855 855 855 855 854 854 854 853 853 853 853 852 851 850 850 849 848 847 846 845 844 843 842 841 840 839
823 823 824 826 828 828 828 831 837 839 837 837 838 839 840 840 841 842 843 844 845 845 846 846 847 847 848 849 849 850 851 852 852 853 853 853 853 853 854 855 855 855 855 855 855 855 855 856 856 856 856 855 855 855 855 855 855 855 854 854 854 854 853 853 853 853 853 852 852 852 851 850 850 849 848 847 846 845 844 843 842 841 840 839 838
821 822 824 825 827 828 827 829 835 837 837 837 838 839 840 840 841 841 842 843 845 845 846 847 847 847 848 848 849 849 850 851 851 852 852 852 852 852 853 853 853 854 854 854 854 854 854 854 855 855 855 854 854 854 854 854 854 854 853 853 853 853 852 852 852 852 851 851 851 851 850 850 849 848 847 846 845 844 843 842 841 840 839 838 836
821 822 823 825 826 827 827 829 834 837 837 837 837 838 839 840 841 841 842 843 844 845 846 847 848 848 848 849 849 849 849 850 850 851 851 852 852 852 851 851 852 852 852 853 853 853 853 853 853 854 854 854 854 853 853 853 853 853 852 852 852 852 851 851 851 851 850 850 850 850 849 849 849 848 847 845 844 843 842 841 840 839 838 837 836
821 822 823 825 825 826 826 829 833 838 838 837 838 838 839 840 840 841 842 842 843 845 845 846 847 848 848 849 849 849 849 849 849 849 850 851 851 851 851 850 850 851 851 851 852 852 852 853 853 853 853 853 853 853 852 852 852 851 851 851 851 850 850 850 850 850 849 849 849 849 848 848 848 847 846 845 844 843 842 841 840 838 838 837 836
823 824 824 825 825 825 827 829 832 836 837 837 838 839 839 839 840 841 842 842 843 845 845 846 847 848 848 849 849 849 849 848 848 849 849 850 850 850 850 849 849 849 849 849 850 851 851 852 852 852 852 851 852 852 851 851 850 850 850 850 850 850 850 849 849 849 848 848 848 848 848 848 847 847 846 845 844 843 842 841 839 838 838 837 837
823 823 823 824 825 827 829 831 832 834 836 837 838 839 839 839 840 841 842 843 844 845 846 846 847 848 849 849 849 849 849 849 849 849 849 849 849 849 849 849 848 848 849 848 849 849 850 851 851 851 850 850 851 851 850 850 850 850 850 849 849 849 849 849 849 848 848 848 848 848 848 847 847 846 846 845 844 843 842 841 840 839 838 838 837
821 822 823 825 827 828 830 831 831 832 834 836 837 839 839 839 839 840 842 843 845 846 847 848 848 849 850 850 850 850 850 850 850 850 849 849 849 848 848 848 847 848 849 849 848 849 849 849 849 850 850 850 850 850 850 850 850 850 850 849 849 849 849 849 849 849 848 848 848 847 847 847 847 846 846 845 844 844 843 842 841 840 839 838 837
821 822 824 826 828 829 829 830 830 831 833 834 836 839 840 840 840 841 842 844 846 847 847 848 849 850 851 852 851 851 851 851 851 851 851 851 850 850 849 849 848 848 849 849 848 849 849 848 849 849 850 850 850 850 850 850 850 850 850 849 848 848 848 849 849 849 848 848 847 847 847 847 847 846 846 845 845 844 843 842 842 841 840 839 838
824 826 827 829 829 830 830 831 832 833 834 835 836 838 839 840 841 843 845 847 848 848 848 849 850 851 852 853 853 852 852 852 852 852 852 852 852 851 851 851 851 850 850 849 849 850 850 850 850 850 850 850 851 851 851 850 850 850 849 849 849 848 848 849 849 849 848 848 847 847 847 847 846 846 846 846 845 845 844 843 842 841 840 839 838
828 829 830 831 832 832 833 834 835 836 836 837 838 839 840 842 843 845 847 849 850 850 850 850 850 851 852 853 853 853 853 853 853 854 854 854 854 853 853 853 853 852 851 850 850 850 851 851 851 851 851 851 851 851 851 850 850 849 850 849 849 849 849 849 849 849 848 848 847 847 847 847 846 846 846 846 845 845 844 843 842 841 840 839 838
831 832 833 834 834 834 835 836 837 838 838 839 840 840 842 844 845 847 849 850 851 850 850 851 851 851 852 853 853 854 854 854 854 855 855 855 855 855 855 855 854 854 853 852 851 851 851 851 851 851 851 850 850 850 850 850 850 850 850 850 850 850 850 850 849 849 849 849 849 849 848 848 847 846 846 845 845 844 843 842 841 840 840 839 838
834 834 835 836 836 837 838 838 839 840 840 842 842 843 844 845 846 848 849 850 850 850 850 851 851 852 853 854 854 854 854 854 854 855 855 856 856 856 856 856 855 855 854 853 853 852 852 851 851 851 850 849 849 849 850 850 850 851 851 851 851 851 851 851 851 851 851 851 851 850 849 849 848 846 846 845 844 843 842 841 841 840 839 838 837
835 836 836 837 838 839 840 840 840 841 842 843 844 844 845 846 847 848 849 850 850 850 850 850 851 852 853 854 854 855 855 855 855 855 856 856 856 857 857 857 856 855 854 853 852 852 851 851 851 851 850 849 849 849 850 850 851 851 852 852 852 852 852 852 852 852 852 853 852 851 851 849 848 846 846 845 844 843 842 841 840 839 839 838 837
836 837 838 839 840 841 842 842 842 842 843 843 844 845 846 847 848 848 849 849 849 849 849 850 851 851 852 853 854 855 855 855 855 856 856 856 857 857 857 856 855 854 853 852 851 851 851 851 851 851 851 850 851 851 851 852 852 852 853 853 853 853 854 853 853 853 853 853 853 852 851 850 849 848 847 846 845 844 842 841 840 839 839 838 837
836 838 839 841 842 843 843 844 844 844 844 844 845 846 847 847 848 848 848 848 849 849 849 850 851 851 852 853 854 855 855 855 855 856 856 856 857 857 857 856 855 854 853 852 851 851 851 851 851 852 851 851 852 853 853 853 853 853 854 854 854 854 854 854 853 853 853 853 853 852 851 851 850 849 848 847 846 844 843 842 841 840 839 838 837
838 839 840 842 843 844 844 845 845 845 845 845 845 846 847 848 848 848 848 848 849 849 850 851 851 852 852 853 854 855 855 855 855 856 856 856 857 857 856 856 855 854 854 853 852 852 851 851 852 852 852 852 853 853 854 854 854 854 854 854 854 854 854 854 854 854 854 853 853 852 852 851 850 849 848 847 846 845 844 843 842 841 840 838 838
840 841 841 843 844 844 844 844 845 845 845 844 845 845 846 847 848 848 848 848 849 850 850 851 851 852 853 853 854 855 855 855 855 856 856 856 856 856 856 855 855 854 854 854 853 853 852 853 853 853 853 853 854 854 854 854 854 855 855 855 855 854 854 854 854 854 854 854 853 853 851 850 850 849 848 847 846 845 844 843 842 841 840 839 839
840 841 842 843 843 844 844 844 844 844 844 844 845 845 845 846 847 848 848 849 849 850 851 851 852 852 853 853 854 854 855 855 855 855 855 855 855 855 855 855 854 854 854 853 853 853 853 853 854 854 854 854 854 854 854 854 855 855 855 855 855 855 855 855 855 854 854 854 853 852 851 850 850 849 848 847 846 845 845 844 843 842 841 840 839
840 841 841 842 843 843 843 843 843 843 843 844 844 844 845 846 846 847 848 849 850 851 851 852 852 853 853 854 854 854 855 855 855 855 855 855 854 854 854 854 854 854 853 853 853 853 853 853 854 854 854 854 854 854 854 854 854 855 855 855 855 855 855 855 854 854 853 853 852 852 851 851 850 849 848 848 847 846 845 844 843 843 841 840 839
839 840 841 841 842 843 843 843 843 843 843 844 844 844 845 846 846 847 848 849 850 851 851 852 853 853 854 854 854 854 855 855 855 854 854 854 854 854 854 854 854 853 853 853 852 852 852 852 853 853 854 853 853 853 854 854 854 854 854 854 855 854 854 854 854 854 853 853 852 852 852 851 850 849 849 848 847 847 846 845 844 843 842 841 840
839 839 840 840 841 842 842 843 843 843 843 844 844 844 845 845 846 847 848 848 849 850 851 851 852 853 853 854 854 855 855 855 855 855 854 854 854 854 853 853 853 853 853 853 852 852 852 852 852 853 853 853 853 854 854 854 854 855 855 855 854 854 854 854 853 854 853 853 853 852 852 851 851 850 849 849 848 847 846 845 844 843 842 841 840
839 839 839 840 840 841 842 842 843 843 843 844 844 844 845 845 846 847 847 848 849 849 850 851 852 852 853 854 854 855 855 855 855 855 855 854 854 854 853 853 853 853 853 853 853 853 852 853 853 853 854 854 854 854 854 854 855 855 855 855 854 854 854 854 853 853 853 853 853 853 852 851 851 850 849 848 848 847 846 845 844 843 842 841 839
838 838 838 839 840 840 841 842 842 843 843 843 844 844 845 845 846 847 847 848 848 849 849 850 851 852 853 853 854 855 855 855 855 855 855 855 854 854 854 853 853 854 854 854 854 854 854 854 854 854 855 855 855 855 855 855 855 855 855 855 854 854 854 853 853 853 853 853 852 852 852 851 850 850 849 848 847 847 846 845 844 843 842 841 839
838 838 838 839 839 840 840 841 841 842 843 843 844 844 845 845 846 846 847 847 847 848 849 850 850 851 852 853 854 855 855 855 855 855 855 855 854 854 853 853 853 853 854 854 854 854 854 855 855 855 855 855 855 856 856 856 856 856 855 855 855 854 854 853 853 853 852 852 852 852 851 851 850 850 849 848 847 847 846 845 844 842 841 840 838
837 837 838 838 838 839 840 840 841 842 842 843 844 844 845 845 846 846 846 847 847 847 848 849 850 850 851 852 853 854 854 855 855 855 855 855 854 853 853 853 853 853 853 854 854 854 855 855 855 855 856 856 856 856 856 856 856 855 855 855 855 854 854 853 853 852 852 852 852 851 851 850 850 850 849 848 847 847 845 844 843 842 840 838 837
836 837 837 837 838 839 839 840 841 841 841 842 843 843 844 845 845 846 846 846 847 847 847 848 849 849 850 851 852 853 854 854 854 855 855 854 854 853 853 853 853 853 854 854 855 855 855 855 855 856 856 856 856 856 856 856 856 855 855 855 854 854 854 853 853 853 852 852 852 851 851 850 850 849 848 848 847 846 845 843 842 840 839 837 835
836 837 837 837 838 838 838 839 840 840 840 841 841 842 843 844 845 845 846 846 846 846 846 847 848 849 850 851 852 853 854 855 855 855 855 854 854 854 854 854 854 854 855 855 855 855 855 855 856 856 856 856 856 856 856 856 856 855 855 855 854 854 854 853 853 853 852 852 851 851 850 849 849 848 847 846 845 844 843 841 840 838 837 835 834
836 836 837 837 838 838 838 838 838 839 839 840 840 841 842 843 843 845 845 845 845 846 846 847 848 848 850 851 853 854 855 855 855 855 855 855 855 854 854 855 855 855 856 856 856 856 856 856 856 856 856 856 856 856 856 856 856 855 855 855 854 854 854 853 853 853 852 852 851 850 849 849 848 847 846 845 844 843 841 840 838 837 835 834 832
835 835 836 836 836 837 837 837 838 838 839 839 840 841 841 842 842 843 844 844 845 845 845 846 847 848 850 851 852 853 854 855 855 855 855 855 855 855 855 856 856 856 856 856 856 857 856 856 856 856 856 856 856 855 855 856 855 855 855 855 854 854 853 853 853 852 852 851 851 850 849 848 847 846 845 844 842 841 840 838 837 835 834 832 831
834 835 835 835 835 836 836 837 837 838 838 839 840 840 841 841 842 842 843 843 844 844 845 846 847 848 849 850 851 852 853 854 855 855 855 855 855 856 856 856 856 856 856 856 856 857 856 856 856 856 856 855 855 855 855 855 855 855 855 854 854 853 853 852 852 851 851 851 850 849 848 847 846 845 844 842 841 839 838 836 835 833 832 830 829
833 833 833 833 834 834 835 835 836 837 837 838 839 840 840 840 841 841 842 843 843 843 844 845 846 847 848 849 850 851 852 852 853 853 854 854 855 855 856 856 856 856 856 856 856 856 856 856 856 855 855 855 854 854 854 854 854 854 854 854 853 853 852 852 851 851 850 850 849 848 847 846 844 843 842 841 839 838 836 835 833 832 830 829 828
831 831 831 831 831 832 832 833 834 835 835 837 837 838 838 839 839 840 841 841 842 842 843 844 845 846 847 848 849 849 850 851 852 852 853 854 854 855 855 855 856 856 856 856 856 855 855 855 855 855 854 854 854 853 853 853 853 853 853 853 853 852 852 851 851 850 849 849 848 847 846 844 843 842 841 839 837 836 834 833 832 830 829 828 827
828 828 828 828 829 829 830 831 832 832 833 835 835 836 837 837 838 838 839 839 840 841 842 843 844 846 846 847 848 849 849 850 851 852 852 853 854 854 855 855 855 855 856 855 856 855 855 855 855 854 854 854 853 853 853 852 852 852 852 852 852 852 851 850 850 849 848 847 846 845 844 843 842 840 839 837 835 834 832 831 830 829 829 827 826
825 826 826 826 826 827 827 828 829 830 830 831 833 834 834 835 836 837 838 838 839 840 841 842 844 845 846 847 847 848 849 850 850 851 852 853 853 854 854 854 855 855 855 855 855 855 855 854 854 854 853 853 853 852 852 852 852 852 851 851 851 851 850 850 849 848 847 846 845 844 843 842 840 839 837 835 834 833 831 831 830 829 828 827 825
823 823 823 824 824 824 824 825 826 826 827 829 831 831 832 833 834 835 836 837 838 839 840 841 843 844 845 845 846 847 848 848 849 850 851 852 852 853 853 853 854 854 854 854 854 854 854 854 853 853 853 853 852 852 852 851 851 851 851 850 850 849 849 848 847 847 846 845 844 843 842 840 839 837 835 834 833 832 831 830 829 828 827 826 824
820 820 821 821 822 822 822 823 823 823 824 826 828 829 830 830 831 832 834 835 836 838 839 840 841 842 843 844 845 846 847 847 848 849 850 851 851 852 852 852 853 853 853 854 854 853 853 853 853 853 852 852 851 851 851 850 850 850 849 849 849 848 848 847 846 845 844 843 842 841 840 839 838 836 835 833 832 831 830 829 828 827 826 824 823
817 817 818 819 819 820 821 821 821 821 822 823 825 826 827 828 829 830 831 833 834 836 837 838 840 841 842 843 844 845 846 847 848 849 849 850 850 851 851 852 852 852 853 853 852 852 853 852 852 852 851 851 850 850 849 849 849 848 848 848 847 847 846 845 844 843 843 842 841 840 838 837 836 835 833 832 831 830 829 828 827 826 825 823 822